Vertical_Velocity
1 -1 -0 -2 -14 -7 -0 1 0 -0 -1 3 1 -5 -3 4 1 -3 -1 2 3 -2 1 4 3 0 -1 -0 -1 0 1 -1 -1 -0 1 -2 0 -0 1 1 1 -0 -2 -2 11 7 0 -1 -2
-0 -0 -0 -2 -10 -2 -4 -1 0 0 1 2 0 2 -3 0 1 0 1 0 -0 -1 -0 4 4 -0 -1 1 0 3 2 0 1 1 0 1 -0 -0 -2 -1 -0 1 0 0 2 1 -0 -1 0
2 2 -2 -5 -1 -3 -3 -0 -0 1 2 1 -1 1 1 1 1 1 1 1 -1 -1 1 4 3 3 4 -1 -2 -0 0 2 2 -0 -1 -1 0 -0 -1 -1 -1 -1 -0 -1 2 4 2 2 1
2 -3 -3 -7 -0 0 -1 -0 -0 1 3 1 0 -3 1 2 1 1 1 1 -0 -0 -1 -2 0 6 3 1 -1 -1 1 0 2 4 6 2 2 1 2 0 -2 -1 -1 1 1 2 0 2 1
0 -1 -3 -1 0 0 -0 0 1 0 1 1 2 2 -0 2 2 1 1 -0 -0 -0 -3 0 0 1 -1 -0 4 3 -3 -1 -2 0 1 0 1 1 3 4 0 -0 -2 -1 1 0 -0 -1 -1
-3 -0 -3 -1 1 1 -0 1 0 -0 1 1 -4 -1 1 1 1 1 1 -0 -0 0 0 -0 -2 -1 1 0 -0 -0 4 1 1 -1 -2 -1 -1 -2 -1 1 2 2 -0 1 0 1 -1 -0 1
-6 -3 -1 -0 0 1 -0 0 -1 -0 0 1 0 -2 2 -0 0 0 0 1 0 -1 -1 -1 -1 -1 -0 1 1 -0 0 2 1 1 1 0 1 -0 -0 -3 -3 -2 0 2 2 2 4 1 0
-2 -5 -0 -0 -1 -0 -0 -0 -0 0 1 2 2 -1 0 1 0 -0 -0 -0 -0 -1 -1 -1 -1 -1 -1 -2 -0 1 -1 -1 1 3 4 1 1 1 1 1 0 -1 -1 -1 -0 -1 -1 2 -0
-1 -7 -0 0 -1 -1 1 -1 1 0 -0 0 0 0 -0 -0 1 1 2 0 0 1 -0 -1 -1 -1 -1 -1 -2 -2 -0 2 1 0 1 2 2 2 1 1 1 1 1 1 -1 -0 2 4 1
-7 -3 -2 -1 -0 -0 1 -1 0 -0 -0 0 0 1 1 1 1 -0 -3 -2 -2 -3 -1 -1 -0 -0 -1 -2 -1 1 0 -1 1 0 1 0 0 2 0 -1 -1 1 -1 -1 0 -0 -2 3 -0
1 -3 -0 1 0 0 0 -1 -0 -1 0 -0 -1 2 1 1 1 1 0 0 -1 -2 -1 -2 -1 -1 -2 -1 -0 -0 -2 -2 -2 2 -0 -1 -1 -0 2 1 2 1 4 0 0 -0 2 1 -0
-8 1 -1 0 1 -1 -1 -1 -1 -0 1 -0 -1 1 2 1 -0 -0 -0 -1 -0 0 -1 -1 -2 -1 0 -1 -1 -1 -2 -1 -1 -2 1 -0 -2 1 -2 -2 2 0 3 -0 2 -1 -2 0 2
-3 0 -0 0 0 -0 0 -0 -1 -3 1 -1 0 0 1 -1 -1 -2 -1 -0 -1 -1 -1 -1 -1 -2 -1 -0 0 -0 -1 -1 -1 -1 -2 -0 0 -1 -0 -1 -0 0 6 3 0 1 2 1 5
2 1 2 0 -0 -0 -1 0 -0 -0 1 -1 1 -1 -3 -2 -1 -1 -1 -3 -1 -1 -0 0 0 -1 -1 -1 -1 -0 0 -0 -1 -0 0 0 -2 -1 0 -2 -0 -1 0 1 4 0 3 3 3
1 -5 -0 -0 0 0 -1 -0 -1 -0 1 -0 1 -1 -0 -0 -1 -0 -1 -0 -2 -2 -5 -6 -2 -1 -1 -1 -1 -1 1 0 -0 -1 -0 2 4 -2 -0 -0 0 -1 1 1 2 5 1 2 10
-4 -6 -2 -2 -0 0 -3 -5 -0 -0 0 1 1 -0 2 0 0 -1 -1 -1 -1 -2 -2 -2 -2 -2 -3 -2 -2 -3 -2 -1 -1 1 1 0 1 5 2 0 -2 2 1 2 3 7 3 -1 9
-4 -2 -0 0 -0 -1 -3 -3 -0 1 1 -1 1 1 0 -0 -1 -0 -3 -4 -3 -3 -3 -2 -2 -2 -3 -2 -2 -3 -4 -2 -1 -2 -0 -1 -3 -4 -4 -0 1 4 2 -0 4 4 6 -1 -3
-2 -0 0 -1 -1 0 0 -3 -3 -1 2 -3 1 0 1 -0 -1 -1 -0 -1 -2 -2 -2 -2 -0 -1 -2 -3 -3 -1 -2 -0 1 2 -0 -1 3 3 3 -0 -5 -5 2 3 4 0 3 3 4
-2 -1 -1 1 -0 0 -1 -1 -4 -5 3 0 -2 1 0 1 0 -1 -1 -1 -1 -2 -2 -1 -1 -1 -1 -1 -5 -1 -4 -4 -2 -4 0 -1 -0 1 -4 1 2 -3 -9 10 12 0 -1 4 2
-1 -1 0 -0 0 1 -1 -6 -3 0 -2 -2 -1 -1 1 0 -1 -1 -1 -2 -1 -2 -3 -1 -1 1 -0 -2 -0 -4 -4 0 1 -2 -1 1 0 -1 -4 -3 -3 2 4 -12 11 -2 5 24 12
0 -2 0 -3 -1 -1 -0 -5 -1 -0 0 0 3 4 2 -0 0 0 -1 1 -0 0 -1 -1 -0 -0 -1 -3 3 1 2 -2 -2 -4 -5 -3 -3 -2 1 1 0 1 6 -4 -6 -1 1 -11 5
-1 -0 -1 -0 -3 -4 -3 -9 -2 -1 -0 0 1 -0 -0 1 -0 -1 -0 -1 -3 -1 -2 2 1 -2 -4 0 -3 -3 -5 -3 -3 0 0 -1 3 2 0 1 -0 0 -1 -1 0 -14 -7 -5 -9
-4 -0 -0 -0 -1 -3 -2 -6 -13 -0 -1 -2 -1 -1 -1 -1 -1 -0 1 -1 -1 -5 0 -1 -2 -0 -1 -0 -0 -3 0 -2 1 -0 2 0 -1 1 1 -1 2 3 3 -2 11 -1 7 -2 -1
-0 -2 -3 -1 -1 -5 -2 -5 -9 -2 -5 -0 0 -1 -1 -0 0 1 -1 -4 1 1 -1 -1 -1 -2 -2 2 -0 -2 -1 -2 -3 -4 -3 -2 -3 -4 -0 -4 -2 -5 -3 -3 -3 -3 -8 -6 -2
-4 -5 -5 -9 -7 -7 -0 -0 -15 -2 -2 -2 -2 -2 -1 0 -1 -2 -2 -2 0 1 -3 -3 -0 0 1 2 -3 1 -3 -0 1 -2 -1 1 1 1 1 -0 -1 -0 -2 2 2 8 15 3 -2
0 -5 -7 -5 -2 -4 -1 -4 -20 -2 -0 -0 -0 1 1 -0 -1 -3 -3 -1 0 -3 -3 -0 1 -1 -2 2 -3 1 -0 -2 -2 -4 -4 -3 -1 -1 -0 1 2 2 2 3 2 -2 -12 -11 -5
-2 -3 -4 -4 -1 -0 -4 -10 -8 0 -1 0 -1 -0 -2 -3 -3 -2 -1 -3 -4 -4 -0 -0 0 -0 -2 -1 -1 -0 1 -1 -2 -3 -3 -2 -2 -1 -1 -0 2 4 7 7 6 3 5 3 2
-1 -5 -8 -3 -4 -1 -4 -2 -8 -2 -2 -1 -1 -3 -2 -2 -1 -1 -3 -3 -2 1 2 1 -2 -2 1 -1 -2 3 3 1 -2 -3 -3 -4 -6 -5 -5 -5 -5 -6 -6 -6 -5 -4 -5 -5 -4
1 -0 -1 -6 -4 -4 -1 -11 -5 -3 -2 -2 -2 -2 -2 -2 -3 -3 -4 -2 -2 -1 -1 -0 1 -1 -4 -2 2 -1 -1 -1 -1 -1 -0 1 1 2 2 2 1 1 2 2 2 2 2 2 3
-1 -2 -3 -5 -3 -1 -3 -19 -0 -1 -1 -0 -1 -0 -0 -0 -0 -0 1 -0 -2 0 -1 0 -1 -2 -1 -2 -1 0 -2 -3 -2 -1 -1 -2 -2 -2 -2 -2 -1 0 0 -0 -1 -1 -1 -1 -1
Height
1503 1505 1507 1509 1522 1528 1530 1523 1520 1518 1519 1520 1517 1518 1524 1528 1532 1540 1536 1536 1536 1537 1538 1538 1537 1537 1537 1537 1538 1538 1537 1538 1538 1538 1539 1539 1539 1539 1539 1538 1538 1538 1537 1537 1537 1536 1536 1536 1536
1503 1506 1508 1509 1528 1537 1534 1523 1521 1519 1519 1519 1520 1523 1524 1533 1533 1535 1537 1536 1536 1536 1538 1538 1537 1536 1537 1537 1537 1538 1538 1538 1538 1538 1538 1539 1539 1539 1539 1539 1538 1538 1538 1537 1537 1537 1537 1537 1537
1505 1506 1508 1515 1531 1534 1531 1522 1521 1520 1519 1519 1522 1524 1529 1534 1535 1536 1537 1536 1536 1536 1537 1537 1537 1537 1537 1537 1537 1537 1538 1537 1538 1538 1538 1538 1538 1538 1538 1539 1538 1538 1537 1537 1537 1537 1538 1538 1538
1505 1507 1511 1521 1523 1523 1522 1520 1520 1519 1519 1519 1522 1528 1532 1535 1536 1537 1537 1537 1536 1536 1536 1537 1536 1536 1537 1536 1536 1536 1537 1537 1537 1537 1537 1537 1538 1538 1538 1538 1537 1537 1537 1537 1536 1537 1537 1537 1537
1505 1505 1519 1525 1523 1522 1521 1521 1520 1520 1521 1522 1522 1531 1534 1536 1537 1537 1537 1537 1537 1536 1536 1536 1536 1536 1535 1535 1536 1535 1536 1536 1537 1537 1537 1537 1537 1537 1536 1536 1536 1536 1536 1536 1536 1537 1537 1537 1536
1504 1506 1522 1529 1525 1522 1522 1521 1521 1522 1524 1524 1526 1530 1536 1537 1538 1537 1537 1537 1536 1536 1536 1536 1536 1535 1535 1534 1534 1535 1535 1535 1535 1535 1536 1536 1535 1536 1536 1536 1535 1535 1535 1535 1535 1535 1535 1536 1536
1503 1510 1520 1525 1527 1523 1522 1522 1523 1524 1525 1526 1528 1532 1537 1537 1537 1537 1537 1536 1536 1535 1535 1535 1534 1534 1534 1534 1533 1533 1532 1533 1533 1533 1533 1533 1533 1534 1534 1534 1534 1534 1534 1533 1533 1533 1534 1534 1534
1503 1507 1518 1523 1526 1525 1522 1523 1525 1524 1526 1527 1528 1532 1536 1537 1537 1537 1537 1536 1535 1534 1533 1533 1532 1532 1531 1531 1531 1531 1530 1530 1530 1530 1531 1531 1531 1531 1531 1531 1531 1531 1532 1531 1531 1531 1531 1532 1532
1503 1517 1526 1523 1523 1524 1523 1523 1525 1526 1526 1527 1529 1531 1534 1536 1537 1536 1536 1535 1534 1533 1531 1530 1529 1529 1529 1529 1528 1529 1528 1528 1527 1527 1528 1528 1527 1528 1528 1528 1528 1528 1528 1528 1527 1527 1528 1529 1529
1504 1520 1520 1520 1520 1522 1523 1523 1526 1527 1527 1529 1531 1533 1534 1535 1535 1534 1533 1532 1531 1530 1530 1528 1528 1527 1526 1525 1525 1525 1525 1525 1525 1525 1525 1524 1524 1524 1524 1524 1524 1524 1524 1524 1523 1523 1524 1524 1524
1508 1515 1518 1520 1520 1521 1523 1525 1527 1527 1529 1529 1531 1533 1534 1534 1533 1532 1531 1530 1529 1529 1529 1527 1526 1525 1524 1523 1522 1522 1521 1521 1521 1521 1521 1521 1520 1520 1520 1520 1520 1519 1520 1519 1519 1519 1519 1519 1520
1512 1515 1516 1521 1521 1522 1524 1526 1527 1528 1528 1529 1531 1532 1532 1532 1531 1531 1530 1530 1529 1528 1527 1525 1524 1523 1521 1520 1519 1518 1517 1517 1516 1516 1517 1517 1516 1516 1516 1515 1515 1515 1515 1515 1515 1515 1516 1516 1516
1513 1515 1517 1522 1524 1524 1524 1526 1526 1525 1527 1529 1530 1531 1531 1531 1530 1530 1529 1529 1528 1527 1526 1524 1522 1520 1519 1517 1516 1514 1514 1513 1512 1511 1511 1511 1512 1511 1511 1511 1510 1510 1510 1511 1511 1511 1511 1511 1512
1512 1515 1519 1524 1526 1525 1525 1527 1526 1525 1524 1527 1530 1529 1529 1530 1530 1529 1529 1529 1527 1525 1524 1522 1520 1518 1516 1515 1513 1511 1510 1508 1507 1507 1506 1505 1505 1505 1505 1505 1505 1505 1505 1506 1506 1506 1506 1506 1507
1516 1521 1524 1526 1525 1526 1526 1527 1526 1524 1525 1527 1528 1529 1529 1528 1529 1529 1528 1527 1525 1524 1522 1520 1518 1517 1514 1512 1509 1507 1506 1504 1502 1502 1501 1501 1499 1499 1499 1499 1499 1500 1500 1500 1500 1501 1501 1501 1502
1521 1526 1530 1528 1526 1527 1527 1528 1523 1524 1526 1526 1527 1528 1528 1528 1528 1528 1527 1526 1524 1522 1520 1518 1516 1514 1512 1510 1507 1504 1502 1500 1498 1496 1496 1496 1494 1494 1493 1492 1493 1494 1494 1494 1495 1496 1495 1497 1497
1531 1543 1528 1530 1528 1528 1529 1527 1523 1523 1524 1525 1525 1525 1526 1527 1528 1527 1526 1525 1523 1520 1517 1515 1514 1512 1510 1507 1504 1501 1499 1496 1494 1492 1491 1491 1490 1489 1487 1487 1486 1486 1489 1489 1489 1490 1490 1491 1491
1531 1538 1529 1529 1530 1529 1530 1529 1523 1523 1522 1521 1522 1524 1525 1526 1527 1527 1526 1524 1522 1518 1515 1512 1510 1509 1507 1504 1501 1499 1496 1493 1491 1490 1489 1487 1486 1485 1484 1482 1482 1481 1482 1484 1484 1484 1486 1486 1486
1524 1527 1529 1530 1530 1531 1530 1528 1522 1518 1518 1517 1518 1520 1523 1524 1525 1524 1523 1521 1519 1516 1513 1510 1508 1506 1504 1501 1498 1495 1492 1491 1490 1488 1487 1486 1485 1483 1481 1479 1478 1478 1479 1479 1478 1480 1480 1480 1480
1523 1529 1533 1531 1530 1531 1529 1523 1515 1513 1512 1512 1513 1517 1519 1521 1522 1521 1520 1519 1516 1513 1511 1508 1506 1504 1502 1500 1498 1495 1492 1491 1489 1487 1486 1485 1483 1481 1479 1477 1476 1476 1476 1476 1475 1476 1474 1475 1474
1531 1533 1532 1538 1532 1532 1533 1523 1512 1511 1510 1510 1511 1514 1516 1518 1518 1518 1518 1517 1514 1512 1509 1506 1504 1503 1502 1500 1498 1495 1493 1491 1489 1487 1487 1485 1483 1482 1480 1477 1476 1476 1474 1474 1475 1474 1469 1470 1469
1533 1531 1531 1532 1541 1547 1538 1544 1515 1512 1511 1510 1511 1512 1514 1515 1515 1516 1515 1513 1512 1511 1508 1505 1503 1502 1501 1500 1497 1494 1493 1491 1489 1487 1486 1486 1483 1481 1479 1477 1475 1475 1473 1472 1473 1472 1470 1469 1470
1534 1531 1532 1533 1541 1547 1540 1556 1520 1514 1511 1508 1508 1510 1511 1512 1513 1513 1512 1511 1511 1510 1507 1505 1503 1502 1501 1499 1497 1495 1494 1493 1490 1489 1487 1485 1483 1481 1479 1477 1476 1474 1472 1472 1468 1468 1472 1466 1469
1531 1534 1539 1542 1549 1561 1540 1547 1521 1514 1504 1502 1504 1506 1508 1509 1510 1509 1509 1509 1509 1508 1507 1505 1504 1503 1502 1500 1497 1495 1494 1492 1491 1490 1488 1486 1484 1482 1479 1477 1476 1475 1475 1473 1471 1469 1471 1466 1468
1535 1545 1573 1564 1566 1558 1542 1545 1516 1501 1500 1500 1500 1502 1505 1506 1506 1506 1507 1507 1508 1507 1507 1506 1505 1504 1502 1500 1499 1496 1494 1493 1491 1490 1489 1487 1486 1483 1480 1479 1477 1476 1474 1473 1472 1471 1466 1462 1462
1536 1541 1564 1557 1562 1559 1541 1538 1508 1496 1496 1497 1498 1500 1502 1503 1503 1503 1505 1505 1506 1507 1507 1506 1506 1504 1502 1501 1499 1497 1495 1493 1491 1491 1490 1488 1486 1484 1482 1479 1477 1474 1472 1470 1467 1464 1465 1466 1465
1537 1548 1540 1555 1557 1555 1548 1523 1498 1495 1495 1496 1497 1498 1498 1499 1499 1500 1501 1502 1504 1505 1505 1505 1504 1503 1501 1500 1499 1498 1496 1493 1492 1491 1489 1487 1485 1483 1480 1478 1475 1473 1470 1468 1466 1464 1462 1459 1456
1531 1535 1547 1551 1560 1548 1544 1532 1510 1497 1492 1492 1494 1493 1494 1495 1496 1497 1497 1499 1501 1503 1504 1503 1502 1501 1500 1500 1499 1498 1496 1493 1491 1489 1487 1485 1483 1481 1478 1476 1473 1470 1468 1465 1463 1460 1458 1456 1454
1535 1536 1537 1544 1549 1555 1543 1518 1494 1491 1490 1490 1489 1489 1490 1491 1492 1493 1495 1497 1499 1500 1501 1500 1500 1500 1500 1499 1498 1496 1494 1492 1490 1489 1487 1484 1482 1479 1476 1473 1470 1467 1465 1462 1460 1458 1456 1454 1452
1529 1532 1536 1546 1542 1544 1546 1518 1488 1487 1487 1487 1486 1486 1487 1488 1490 1491 1493 1494 1496 1497 1498 1499 1498 1498 1497 1496 1495 1494 1492 1490 1488 1487 1485 1482 1479 1476 1473 1470 1468 1465 1463 1460 1458 1455 1453 1450 1448